星链-4645 (STARLINK-4645 )

导读

STARLINK-4645是美国SpaceX公司星链项目中的卫星,于2022年9月5日发射。作为星链低轨卫星互联网星座的组成部分,它大概率属于Starlink V1.5卫星,具备激光星间链路功能,可直接实现星间通信,助力构建全球覆盖的高效通信网络,为全球用户,尤其是偏远地区提供高速宽带互联网服务。

基本信息
目录编号:
53743
目录名称:
STARLINK-4645
国际标识:
2022-107AV
轨道中心:
EARTH
卫星名称:
星链-4645
卫星全名:
星链-4645 (STARLINK-4645 )
卫星状态:
在轨 (已飞行1381 天)
发射日期:
2022-09-05 UTC
国别 :
美国 (US)
星等 :
--
轨道信息
数据来源 国际轨道数据 AOE轨道数据
星历时间 2026-06-17T01:28:56+0800
15小时前
查看轨道信息
2026-06-14T08:00:00+0800
3天前
查看轨道信息
半长轴 6917.929km 6917.871km
偏心率 0.0001273 0.0001351
轨道倾角 53.161° 53.158°
近地点辐角 87.968° 84.286°
升交点赤经 179.516° 191.776°
平近点角 272.145° 207.483°
近地点 538.911km 538.799km
远地点 540.673km 540.669km
周期 95.439分钟 95.437分钟
每日圈数 15.088243 15.088433
详细信息
固有亮度:
5
最大亮度:
2.5
卫星平台:
Starlink v1.5
覆盖范围:
全球
运营商:
太空探索技术公司
运营商所在国:
美国
制造商(研发单位):
太空探索技术公司
制造商所在国:
美国
使用方式:
暂无
卫星简介
星链(Starlink)计划是由太空探索技术公司(SpaceX)提出的一个巨型低轨卫星互联网星座项目,计划在2019年至2024年间在太空搭建由约1.2万颗卫星组成的“星链”网络,其中1584颗将部署在地球上空550千米处的近地轨道,并从2020年开始工作。该卫星仍在工作。
2D轨道图
3D轨道图
轨道高度分析图
轨道倾角分析图
轨道综合分析图
查看轨道综合分析图